Home   Weather   Cambridge   Past weeks

Flag for Canada Past Weather in Cambridge, Ontario, Canada — Yesterday and Last 2 Weeks

Now
25 °F

Light snow. Mostly cloudy.


Feels Like: 12 °F
Forecast: 24 / 33 °F
Wind: 16 mph from West

Location: Waterloo Well

Current Time: Feb 26, 2017 at 9:44:29 am

Latest Report: Feb 26, 2017 at 9:15 am


Visibility: 7 mi

Pressure: 30.05 "Hg

Humidity: 80%

Dew Point: 19 °F

Location of CambridgeLocation

Past Weather in Cambridge — Graph

°F

Cambridge Temperature Yesterday

Maximum temperature yesterday: 54 °F (at 1:06 am)
Minimum temperature yesterday: 25 °F (at 9:59 pm)
Average temperature yesterday: 39 °F

High & Low Weather Summary for the Past Weeks

 TemperatureHumidityPressure
High61 °F (Feb 23, 12:00 pm)100% (Feb 12, 4:34 am)30.38 "Hg (Feb 12, 4:34 am)
Low9 °F (Feb 17, 4:00 am)46% (Feb 20, 2:00 pm)29.43 "Hg (Feb 25, 6:52 am)
Average34 °F84%29.81 "Hg
* Reported Feb 11 8:00 am — Feb 26 8:37 am, Cambridge, Weather by CustomWeather, © 2017

Note: Actual official high and low records may vary slightly from our data, if they occured in-between our weather recording intervals... More about our weather records

Advertising

Cambridge Weather History for the Previous 24 Hours

Scroll right to see more
 ConditionsComfort  
Time TempWeatherWind HumidityBarometerVisibility
8:37 am
Sun, Feb 26
25 °FLight snow. Mostly cloudy.9 mph80%30.04 "Hg6 mi
8:11 am25 °FLight snow. Mostly cloudy.14 mph80%30.03 "Hg5 mi
8:00 am25 °FLight snow. Mostly cloudy.16 mph80%30.03 "Hg9 mi
7:06 am23 °FLight snow. Mostly cloudy.14 mph86%29.99 "Hg9 mi
6:42 am25 °FLight snow. Overcast.14 mph86%29.98 "Hg7 mi
6:00 am25 °FLight snow. Overcast.9 mph80%29.97 "Hg9 mi
5:00 am23 °FLight snow. Mostly cloudy.10 mph86%29.94 "Hg9 mi
4:00 am23 °FLight snow. Mostly cloudy.8 mph80%29.91 "Hg9 mi
3:38 am23 °FLight snow. Overcast.12 mph80%29.90 "Hg9 mi
3:10 am23 °FOvercast.12 mph80%29.90 "Hg9 mi
2:00 am23 °FLight snow. Partly cloudy.10 mph86%29.89 "Hg9 mi
1:33 am25 °FLight snow. Mostly cloudy.13 mph86%29.88 "Hg1 mi
1:21 am25 °FLight snow. Overcast.8 mph80%29.87 "Hg9 mi
1:00 am25 °FLight snow. Overcast.15 mph80%29.87 "Hg9 mi
12:26 am25 °FLight snow. Mostly cloudy.16 mph80%29.85 "Hg9 mi
12:21 am25 °FMostly cloudy.20 mph80%29.85 "Hg9 mi
12:00 am25 °FLight snow. Mostly cloudy.17 mph74%29.85 "Hg9 mi
11:13 pm
Sat, Feb 25
25 °FLight snow. Mostly cloudy.17 mph86%29.84 "Hg6 mi
11:03 pm25 °FLight snow. Mostly cloudy.18 mph86%29.84 "Hg2 mi
10:44 pm25 °FLight snow. Mostly cloudy.14 mph86%29.83 "Hg2 mi
10:37 pm25 °FLight snow. Mostly cloudy.17 mph86%29.83 "Hg2 mi
10:12 pm25 °FLight snow. Overcast.17 mph86%29.82 "Hg6 mi
9:59 pm25 °FLight snow. Overcast.22 mph86%29.81 "Hg2 mi
9:00 pm27 °FLight snow. Overcast.17 mph74%29.78 "Hg9 mi
8:29 pm27 °FLight snow. Mostly cloudy.21 mph80%29.75 "Hg6 mi
8:22 pm27 °FLight snow. Mostly cloudy.22 mph80%29.75 "Hg2 mi
8:00 pm27 °FLight snow. Mostly cloudy.23 mph86%29.72 "Hg2 mi
7:55 pm27 °FLight snow. Mostly cloudy.23 mph86%29.72 "Hg2 mi
7:00 pm30 °FLight snow. Mostly cloudy.21 mph64%29.67 "Hg9 mi
6:00 pm30 °FLight snow. Mostly cloudy.30 mph64%29.63 "Hg9 mi
5:11 pm32 °FLight snow. More clouds than sun.22 mph64%29.61 "Hg9 mi
5:00 pm32 °FCloudy.21 mph64%29.60 "Hg9 mi
4:44 pm32 °FLight rain. More clouds than sun.23 mph69%29.61 "Hg9 mi
4:16 pm32 °FMostly cloudy.28 mph60%29.58 "Hg9 mi
4:04 pm32 °FLight rain. Mostly cloudy.21 mph64%29.58 "Hg9 mi
3:35 pm34 °FLight snow. Mostly cloudy.26 mph60%29.57 "Hg9 mi
3:00 pm34 °FLight snow. Overcast.21 mph70%29.57 "Hg9 mi
2:37 pm36 °FLight rain. Mostly cloudy.25 mph65%29.55 "Hg9 mi
2:23 pm36 °FMostly cloudy.20 mph70%29.54 "Hg9 mi
2:00 pm36 °FLight rain. Cloudy.15 mph75%29.53 "Hg9 mi
1:50 pm36 °FLight rain. Cloudy.25 mph75%29.52 "Hg9 mi
1:11 pm37 °FLight rain. Cloudy.24 mph75%29.49 "Hg9 mi
1:00 pm43 °FMostly cloudy.20 mph66%29.49 "Hg9 mi
12:00 pm41 °FOvercast.25 mph66%29.49 "Hg9 mi
11:57 am41 °FMostly cloudy.30 mph66%29.49 "Hg9 mi
11:00 am41 °FMostly cloudy.17 mph70%29.48 "Hg9 mi
10:00 am41 °FMostly cloudy.20 mph70%29.49 "Hg9 mi
9:00 am41 °FOvercast.14 mph81%29.48 "Hg9 mi
Weather by CustomWeather, © 2017

See weather overviewHow to use our weather pages

LIVE ANNULAR SOLAR ECLIPSE – Watch the eclipse as it happens